Flag for U.S.A. Weather past 2 weeks in Charlotte, North Carolina, U.S.A.

Now
73 °F

Clear.


Feels Like: 73 °F
Forecast: 70 / 92 °F
Wind: No wind

Location: Charlotte / Douglas International Airport

Current Time: Sep 2, 2015 at 3:33:24 AM

Latest Report: Sep 2, 2015 at 2:52 AM


Visibility: 10 mi

Pressure: 30.06 "Hg

Humidity: 81%

Dew point: 67 °F

Location of CharlotteLocation

Historic Weather in Charlotte — Graph

°F

Charlotte temperature yesterday

Maximum temperature yesterday: 92 °F (at 4:52 PM)
Minimum temperature yesterday: 68 °F (at 4:52 AM)
Average temperature yesterday: 81 °F

Past Weeks' High & Low Weather Summary

 TemperatureHumidityPressure
High92 °F (Aug 20, 1:52 PM)96% (Sep 1, 4:52 AM)30.23 "Hg (Sep 1, 4:52 AM)
Low59 °F (Aug 29, 4:52 AM)31% (Aug 28, 4:52 PM)29.84 "Hg (Aug 24, 6:52 PM)
Average78 °F65%30.02 "Hg
* Reported Aug 18 1:52 AM — Sep 2 1:52 AM, Charlotte, Weather by CustomWeather, © 2015

Note: Actual official high and low records may vary slightly from our data, if they occured in-between our weather recording intervals... More about our weather records

Advertising

Charlotte weather history for previous 24 hours

 ConditionsComfort  
Time TempWeatherWind HumidityBarometerVisibility
1:52 AM
Wed, Sep 2
75 °FPassing clouds.No wind76%30.07 "Hg10 mi
12:52 AM75 °FPassing clouds.No wind76%30.08 "Hg10 mi
11:52 PM
Tue, Sep 1
78 °FPassing clouds.3 mph66%30.08 "Hg10 mi
10:52 PM78 °FClear.3 mph66%30.06 "Hg10 mi
9:52 PM81 °FPassing clouds.No wind60%30.07 "Hg10 mi
8:52 PM83 °FPassing clouds.6 mph55%30.06 "Hg10 mi
7:52 PM85 °FPassing clouds.7 mph50%30.05 "Hg10 mi
6:52 PM90 °FScattered clouds.3 mph37%30.04 "Hg10 mi
5:52 PM90 °FScattered clouds.3 mph37%30.03 "Hg10 mi
4:52 PM92 °FScattered clouds.No wind35%30.04 "Hg10 mi
3:52 PM91 °FScattered clouds.5 mph36%30.05 "Hg10 mi
2:52 PM91 °FScattered clouds.No wind37%30.06 "Hg10 mi
1:52 PM91 °FScattered clouds.6 mph38%30.08 "Hg10 mi
12:52 PM89 °FScattered clouds.7 mph43%30.08 "Hg10 mi
11:52 AM88 °FScattered clouds.5 mph48%30.10 "Hg10 mi
10:52 AM86 °FSunny.No wind51%30.13 "Hg10 mi
9:52 AM81 °FSunny.No wind65%30.12 "Hg10 mi
8:52 AM77 °FSunny.No wind77%30.12 "Hg10 mi
7:52 AM72 °FClear.No wind87%30.11 "Hg10 mi
6:52 AM69 °FClear.No wind93%30.09 "Hg10 mi
5:52 AM69 °FClear.No wind90%30.07 "Hg7 mi
4:52 AM68 °FClear.No wind96%30.06 "Hg10 mi
3:52 AM70 °FClear.No wind90%30.06 "Hg10 mi
Weather by CustomWeather, © 2015

See weather overviewHow to use our weather pages